Curacao Island, Netherlands

11:36 PM AST on January 23, 2017 (GMT -0400)
Flamingo

Weather History for TNCB - October, 2011

Change the Weather History Date:

Saturday, October 8, 2011

  Actual Average Record
Temperature  
Mean Temperature 85 °F -  
Max Temperature 88 °F 87 °F 95 °F (2005)
Min Temperature 82 °F 80 °F 73 °F (2007)
Cooling Degree Days 20    
Growing Degree Days 35 (Base 50)    
Moisture  
Dew Point 77 °F    
Average Humidity 76    
Maximum Humidity 84    
Minimum Humidity 65    
Precipitation  
Precipitation 0.00 in - - ()
Sea Level Pressure  
Sea Level Pressure 29.83 in    
Wind  
Wind Speed 9 mph ()    
Max Wind Speed 22 mph    
Max Gust Speed -    
Visibility 8.7 miles    
Events      
Averages and records for this station are not official NWS values.
T = Trace of Precipitation, MM = Missing Value Source: Averaged Metar Reports

Daily Weather History Graph

Daily Weather History Graph

Search for Another Location

Airport or City:

Trip Planner

Search our weather history database for the weather conditions in past years. The results will help you decide how hot, cold, wet, or windy it might be!

Date:

Astronomy

Oct. 08, 2011 Rise Set
Actual Time 6:22 AM AST 6:18 PM AST
Civil Twilight 6:01 AM AST 6:40 PM AST
Nautical Twilight 5:36 AM AST 7:04 PM AST
Astronomical Twilight 5:11 AM AST 7:29 PM AST
Moon 4:04 PM AST (10/8) 3:35 AM AST (10/8)
Length of Visible Light 12h 38m
Length of Day
11h 56m
Waxing Gibbous, 90% of the Moon is Illuminated
Oct 8
Waxing Gibbous
Oct 11
Full
Oct 19
Last Quarter
Oct 26
New
Nov 2
First Quarter

Hourly Weather History & Observations

Time (AST) Temp. Heat Index Dew Point Humidity Pressure Visibility Wind Dir Wind Speed Gust Speed Precip Events Conditions
12:00 AM 82.4 °F 90.9 °F 77.0 °F 84% 29.86 in - North - - N/A   Unknown
1:00 AM 82.4 °F 90.9 °F 77.0 °F 84% 29.83 in - North - - N/A   Unknown
2:00 AM 83 °F - 76 °F 74%  in - Calm Calm - -   Clear
2:00 AM 82.4 °F 90.9 °F 77.0 °F 84% 29.80 in - North - - N/A   Unknown
3:00 AM 82.4 °F 90.9 °F 77.0 °F 84% 29.80 in - North - - N/A   Unknown
4:00 AM 82.4 °F 90.9 °F 77.0 °F 84% 29.77 in - North - - N/A   Unknown
5:00 AM 82.4 °F 90.9 °F 77.0 °F 84% 29.80 in - North - - N/A   Unknown
6:00 AM 82.4 °F 90.9 °F 77.0 °F 84% 29.80 in - North - - N/A   Unknown
7:00 AM 82.4 °F 90.9 °F 77.0 °F 84% 29.83 in - North - - N/A   Unknown
8:00 AM 86 °F - 78 °F 70%  in - Calm Calm - -   Clear
8:00 AM 86.0 °F 96.9 °F 77.0 °F 74% 29.86 in - North - - N/A   Unknown
9:00 AM 87.8 °F 102.5 °F 78.8 °F 75% 29.89 in 6.2 mi East 18.4 mph - N/A   Scattered Clouds
10:00 AM 86.0 °F 96.9 °F 77.0 °F 74% 29.89 in 6.2 mi ESE 19.6 mph - N/A   Scattered Clouds
11:00 AM 88 °F - 79 °F 67% 29.90 in 19 mi Calm Calm - -   Partly Cloudy
11:00 AM 87.8 °F 99.7 °F 77.0 °F 70% 29.89 in 6.2 mi East 21.9 mph - N/A   Scattered Clouds
12:00 PM 87.8 °F 99.7 °F 77.0 °F 70% 29.86 in 6.2 mi North - - N/A   Scattered Clouds
1:30 PM 87.8 °F 102.5 °F 78.8 °F 75% 29.86 in 6.2 mi ESE 19.6 mph - N/A   Scattered Clouds
2:00 PM 88 °F - 78 °F 65% 29.85 in 16 mi Calm Calm - -   Partly Cloudy
2:00 PM 87.8 °F 102.5 °F 78.8 °F 75% 29.83 in 6.2 mi ESE 19.6 mph - N/A   Scattered Clouds
3:00 PM 87.8 °F 102.5 °F 78.8 °F 75% 29.80 in - North - - N/A   Unknown
4:00 PM 86.0 °F 96.9 °F 77.0 °F 74% 29.80 in 6.2 mi East 20.7 mph - N/A   Scattered Clouds
5:00 PM 85 °F - 77 °F 71% 29.80 in 16 mi East 20.7 mph - -   Partly Cloudy
5:00 PM 86.0 °F 96.9 °F 77.0 °F 74% 29.77 in 6.2 mi East 20.7 mph - N/A   Scattered Clouds
6:00 PM 84.2 °F 94.1 °F 77.0 °F 79% 29.77 in 6.2 mi East 19.6 mph - N/A   Scattered Clouds
7:00 PM 82.4 °F 89.5 °F 75.2 °F 79% 29.77 in - North - - N/A   Unknown
8:00 PM 82.4 °F 89.5 °F 75.2 °F 79% 29.80 in - North - - N/A   Unknown
9:00 PM 84.2 °F 92.3 °F 75.2 °F 74% 29.83 in - North - - N/A   Unknown
10:00 PM 84.2 °F 92.3 °F 75.2 °F 74% 29.86 in - North - - N/A   Unknown
11:00 PM 83 °F - 75 °F 72%  in 6 mi Calm Calm - -   Clear
11:00 PM 84.2 °F 92.3 °F 75.2 °F 74% 29.86 in - North - - N/A   Unknown